Flag for Martinique Weather past 2 weeks in Fort-de-France, Martinique

Now
81 °F

Passing clouds.


Feels Like: 84 °F
Forecast: 79 / 87 °F
Wind: 9 mph from Northeast

Location: Le Lamentin Airport

Current Time: Jul 31, 2015 at 10:01:15 PM

Latest Report: Jul 31, 2015 at 9:30 PM


Visibility: N/A

Pressure: 30.01 "Hg

Humidity: 70%

Dew point: 70 °F

Location of Fort-de-FranceLocation

Historic Weather in Fort-de-France — Graph

°F

Fort-de-France temperature yesterday

Maximum temperature yesterday: 88 °F (at 1:00 PM)
Minimum temperature yesterday: 75 °F (at 7:00 PM)
Average temperature yesterday: 81 °F

Past Weeks' High & Low Weather Summary

 TemperatureHumidityPressure
High88 °F (Jul 17, 12:30 PM)94% (Jul 22, 12:30 AM)30.07 "Hg (Jul 22, 12:30 AM)
Low75 °F (Jul 19, 2:30 AM)52% (Jul 19, 12:30 PM)29.92 "Hg (Jul 20, 4:00 PM)
Average82 °F75%30.00 "Hg
* Reported Jul 16 9:00 PM — Jul 31 9:00 PM, Fort-de-France, Weather by CustomWeather, © 2015

Note: Actual official high and low records may vary slightly from our data, if they occured in-between our weather recording intervals... More about our weather records

Advertising

Fort-de-France weather history for previous 24 hours

 ConditionsComfort  
Time TempWeatherWind HumidityBarometerVisibility
9:00 PM
Fri, Jul 31
81 °FPassing clouds.9 mph74%30.01 "HgN/A
8:30 PM81 °FPassing clouds.10 mph74%29.98 "HgN/A
8:00 PM81 °FPassing clouds.10 mph74%29.98 "HgN/A
7:30 PM81 °FPassing clouds.9 mph74%29.98 "HgN/A
7:00 PM81 °FPartly cloudy.14 mph74%29.98 "HgN/A
6:30 PM82 °FBroken clouds.15 mph70%29.95 "HgN/A
6:00 PM82 °FBroken clouds.14 mph70%29.95 "HgN/A
5:30 PM84 °FPassing clouds.14 mph66%29.95 "HgN/A
5:00 PM84 °FPassing clouds.15 mph66%29.95 "HgN/A
4:30 PM84 °FScattered clouds.16 mph70%29.95 "HgN/A
4:00 PM84 °FScattered clouds.17 mph70%29.98 "HgN/A
3:30 PM86 °FBroken clouds.17 mph66%29.98 "HgN/A
3:00 PM86 °FBroken clouds.18 mph66%29.98 "HgN/A
2:30 PM86 °FBroken clouds.18 mph66%29.98 "HgN/A
2:00 PM86 °FBroken clouds.17 mph66%30.01 "HgN/A
1:30 PM86 °FBroken clouds.17 mph66%30.01 "HgN/A
1:00 PM86 °FBroken clouds.20 mph66%30.01 "HgN/A
12:30 PM88 °FPartly sunny.17 mph62%30.01 "HgN/A
12:00 PM88 °FPartly sunny.18 mph62%30.04 "HgN/A
11:30 AM86 °FPartly sunny.18 mph70%30.04 "HgN/A
11:00 AM86 °FPartly sunny.17 mph66%30.04 "HgN/A
10:30 AM86 °FBroken clouds.22 mph66%30.04 "HgN/A
10:00 AM84 °FBroken clouds.18 mph79%30.04 "HgN/A
9:30 AM84 °FOvercast.17 mph74%30.04 "HgN/A
9:00 AM84 °FBroken clouds.15 mph79%30.04 "HgN/A
8:30 AM82 °FBroken clouds.16 mph79%30.01 "HgN/A
8:00 AM82 °FBroken clouds.16 mph79%30.01 "HgN/A
7:30 AM82 °FPartly sunny.10 mph84%30.01 "HgN/A
7:00 AM79 °FRain. Mostly cloudy.14 mph89%30.01 "HgN/A
6:30 AM79 °FHeavy rain. Broken clouds.6 mph94%30.01 "HgN/A
6:00 AM79 °FLight rain. Broken clouds.9 mph89%29.98 "HgN/A
5:30 AM79 °FLight rain. Passing clouds.8 mph89%29.98 "HgN/A
5:00 AM79 °FPartly cloudy.8 mph89%29.98 "HgN/A
4:30 AM81 °FPassing clouds.8 mph84%29.98 "HgN/A
4:00 AM81 °FPartly cloudy.9 mph84%29.98 "HgN/A
3:30 AM79 °FPassing clouds.8 mph89%29.98 "HgN/A
3:00 AM79 °FMostly cloudy.10 mph89%29.98 "HgN/A
2:30 AM81 °FMostly cloudy.10 mph84%29.98 "HgN/A
2:00 AM81 °FOvercast.8 mph84%29.98 "HgN/A
1:30 AM81 °FOvercast.9 mph84%29.98 "HgN/A
1:00 AM81 °FPartly cloudy.7 mph84%30.01 "HgN/A
12:30 AM79 °FPassing clouds.7 mph89%30.01 "HgN/A
12:00 AM79 °FMostly cloudy.8 mph89%30.01 "HgN/A
11:30 PM
Thu, Jul 30
81 °FMostly cloudy.10 mph84%30.01 "HgN/A
11:00 PM81 °FPartly cloudy.12 mph84%30.01 "HgN/A
10:30 PM79 °FMostly cloudy.10 mph89%30.01 "HgN/A
10:00 PM77 °FMostly cloudy.9 mph94%30.01 "HgN/A
Weather by CustomWeather, © 2015

See weather overviewHow to use our weather pages